Regional Weather Roundup
Issued by NWS

Home | Current Version | Previous Version | Text Only | Print | Product List | Glossary Off
Versions: 1 2 3 4 5 6 7 8 9 10 11 12 13 14 15 16 17 18 19 20 21 22 23 24 25 26 27 28 29 30 31 32 33 34 35 36 37 38 39 40 41 42 43 44 45 46 47 48 49 50

258
ASUS43 KBIS 260331
RWRND
NORTH DAKOTA REGIONAL WEATHER ROUNDUP
NATIONAL WEATHER SERVICE EASTERN NORTH DAKOTA/GRAND FORKS ND
1000 PM CDT THU MAY 25 2017

  NOTE: "FAIR" INDICATES FEW OR NO CLOUDS BELOW 12,000 FEET WITH NO
  SIGNIFICANT WEATHER AND/OR OBSTRUCTIONS TO VISIBILITY.

NDZ001>003-009>011-017-260400-
...NORTHWEST NORTH DAKOTA...

CITY           SKY/WX    TMP DP  RH WIND       PRES   REMARKS
WILLISTON      CLOUDY    57  44  62 W20       29.57R
MINOT          FAIR      59  43  55 SW10      29.52R
MINOT AFB      MOCLDY    57  43  59 W8        29.51R
$$

NDZ018>021-031>035-040>046-260400-
...SOUTHWEST NORTH DAKOTA...

CITY           SKY/WX    TMP DP  RH WIND       PRES   REMARKS
BISMARCK       CLOUDY    61  44  53 W10       29.60R
DICKINSON      CLOUDY    53  42  66 W16       29.62R
GARRISON         N/A     55  41  59 W10       29.55R
HETTINGER      FAIR      50  43  77 W17       29.70R
$$

NDZ004>008-012>016-024-026-027-054-260400-
...NORTHEAST NORTH DAKOTA...

CITY           SKY/WX    TMP DP  RH WIND       PRES   REMARKS
GRAND FORKS    FAIR      63  51  65 SE13      29.51R
GRAND FORKS AF FAIR      62  51  66 SE13      29.51R
DEVILS LAKE    FAIR      60  46  59 W15       29.52R
$$

NDZ022-023-025-028>030-036>039-047>053-260400-
...SOUTHEAST NORTH DAKOTA...

CITY           SKY/WX    TMP DP  RH WIND       PRES   REMARKS
JAMESTOWN      FAIR      60  45  57 W9        29.54R
FARGO          FAIR      64  53  67 S15       29.55R
WAHPETON       CLOUDY    61  52  72 SE10      29.59R
$$




USA.gov is the U.S. government's official web portal to all federal, state and local government web resources and services.